KD8OUK Weather Reports


time (UTC)temp
F
wind
direction
speed
knots
gust
knots
rain 1hr
in
rain 24hr
in
rain mn
in
humidity
%
barometer
mb
20260504184520 76 247 7.8 13.0 0.00 0.00 0.00 51 1007.1
20260504184031 76 242 9.6 14.8 0.00 0.00 0.00 52 1007.1
20260504183523 77 254 9.6 13.9 0.00 0.00 0.00 51 1007.1
20260504183015 77 231 8.7 13.9 0.00 0.00 0.00 49 1007.1
20260504182525 78 253 7.8 10.4 0.00 0.00 0.00 49 1007.0
20260504182018 78 235 7.8 12.2 0.00 0.00 0.00 50 1006.9
20260504181528 77 252 8.7 13.9 0.00 0.00 0.00 50 1006.9
20260504181020 76 242 8.7 13.0 0.00 0.00 0.00 52 1006.9
20260504180531 76 242 8.7 13.0 0.00 0.00 0.00 52 1006.9
20260504180022 75 256 7.8 8.7 0.00 0.00 0.00 53 1007.1
20260504175532 75 242 8.7 14.8 0.00 0.00 0.00 52 1007.2
20260504175024 75 241 7.8 13.0 0.00 0.00 0.00 53 1007.2
20260504174516 75 262 8.7 10.4 0.00 0.00 0.00 52 1007.3
20260504174026 75 280 7.0 10.4 0.00 0.00 0.00 54 1007.3
20260504173519 74 251 8.7 13.0 0.00 0.00 0.00 53 1007.4
20260504173029 73 256 9.6 13.9 0.00 0.00 0.00 54 1007.4
20260504172520 73 245 8.7 16.5 0.00 0.00 0.00 55 1007.6
20260504172030 74 272 8.7 11.3 0.00 0.00 0.00 54 1007.7
20260504171522 73 246 7.8 10.4 0.00 0.00 0.00 56 1007.7
20260504171026 73 271 8.7 15.6 0.00 0.00 0.00 55 1007.7
20260504170523 72 250 7.0 11.3 0.00 0.00 0.00 55 1007.7
20260504151025 63 264 7.8 11.3 0.00 0.00 0.00 67 1008.8
20260504150515 62 234 6.1 12.2 0.00 0.00 0.00 68 1008.8
20260504141019 58 248 6.1 7.8 0.00 0.00 0.00 73 1008.9
20260504140517 58 243 5.2 8.7 0.00 0.00 0.00 74 1008.9
20260504130532 54 216 4.3 7.0 0.00 0.00 0.00 74 1009.5
20260504110532 46 68 0.9 1.7 0.00 7.08 0.00 86 1009.5
20260504100526 45 68 0.0 1.7 0.00 7.08 0.00 85 1009.7
20260504081533 45 203 0.0 1.7 0.00 7.08 0.00 84 1010.5
20260504081025 45 180 0.0 1.7 0.00 7.08 0.00 83 1010.5
20260504080517 45 0.0 0.9 0.00 7.08 0.00 83 1010.5
20260504050522 49 200 0.9 3.5 0.00 7.08 0.00 78 1012.4
20260504045524 49 201 0.9 2.6 0.00 7.08 0.00 78 1012.4
20260504045016 49 197 1.7 4.3 0.00 7.08 0.00 78 1012.3
20260504044527 49 171 1.7 3.5 0.00 7.08 0.00 78 1012.3
20260504044019 49 88 1.7 3.5 0.00 7.08 0.00 78 1012.3
20260504043529 49 155 1.7 2.6 0.00 7.08 0.00 79 1012.4
20260504043021 49 160 1.7 3.5 0.00 7.08 0.00 79 1012.4
20260504042531 49 176 1.7 2.6 0.00 7.08 0.00 79 1012.5
20260504042023 49 161 1.7 3.5 0.00 7.08 0.00 79 1012.6
20260504041515 49 172 1.7 2.6 0.00 7.08 0.00 79 1012.6
20260504041020 49 175 1.7 2.6 0.00 7.08 0.00 79 1012.6
20260504040530 49 190 1.7 3.5 0.00 7.08 0.00 80 1012.6
20260504040027 49 146 1.7 4.3 0.00 7.08 0.00 80 1012.7
20260504035532 48 179 1.7 4.3 0.00 7.08 7.08 80 1012.8
20260504035024 48 148 1.7 2.6 0.00 7.08 7.08 80 1012.8
20260504034518 48 168 1.7 2.6 0.00 7.08 7.08 81 1012.9
20260504034027 48 190 1.7 3.5 0.00 7.08 7.08 81 1012.9
20260504033526 48 182 1.7 4.3 0.00 7.08 7.08 81 1013.1
20260504033023 48 195 1.7 3.5 0.00 7.08 7.08 81 1013.1
20260504032515 48 179 1.7 3.5 0.00 7.08 7.08 80 1013.1
20260504032020 48 188 1.7 2.6 0.00 7.08 7.08 80 1013.1
20260504031518 48 198 1.7 4.3 0.00 7.08 7.08 80 1013.1
20260504031016 48 204 1.7 4.3 0.00 7.08 7.08 80 1013.3
20260504030520 48 118 1.7 2.6 0.00 7.08 7.08 81 1013.3
20260504030025 48 140 1.7 6.1 0.00 7.08 7.08 82 1013.3
20260504025517 48 168 1.7 3.5 0.00 7.08 7.08 82 1013.3
20260504025027 48 179 0.9 2.6 0.00 7.08 7.08 82 1013.3
20260504024520 48 181 1.7 2.6 0.00 7.08 7.08 83 1013.3
20260504024030 48 112 0.9 2.6 0.00 7.08 7.08 83 1013.3
20260504023522 48 68 0.0 1.7 0.00 7.08 7.08 85 1013.3
20260504023032 47 68 1.7 1.7 0.00 7.08 7.08 86 1013.3
20260504022525 47 107 1.7 1.7 0.00 7.08 7.08 87 1013.4
20260504022017 47 155 1.7 2.6 0.00 7.08 7.08 87 1013.4
20260504021526 47 169 0.9 1.7 0.00 7.08 7.08 87 1013.5
20260504021020 47 158 1.7 2.6 0.00 7.08 7.08 86 1013.6
20260504020530 47 166 1.7 2.6 0.00 7.08 7.08 86 1013.6
20260504020023 47 171 1.7 2.6 0.00 7.08 7.08 85 1013.5
20260504015532 47 184 1.7 2.6 0.00 7.08 7.08 84 1013.5
20260504015024 47 208 1.7 2.6 0.00 7.08 7.08 84 1013.5
20260504014516 47 197 1.7 5.2 0.00 7.08 7.08 85 1013.4
20260504014026 47 205 0.9 2.6 0.00 7.08 7.08 86 1013.4
20260504013519 46 224 1.7 3.5 0.00 7.08 7.08 86 1013.5
20260504013029 46 207 1.7 3.5 0.00 7.08 7.08 86 1013.5
20260504012521 46 238 2.6 4.3 0.00 7.08 7.08 87 1013.4
20260504012032 46 231 1.7 2.6 0.00 7.08 7.08 86 1013.3
20260504011523 46 210 1.7 3.5 0.00 7.08 7.08 86 1013.2
20260504011016 46 206 2.6 4.3 0.00 7.08 7.08 86 1013.1
20260504010525 46 149 1.7 3.5 0.00 7.08 7.08 87 1013.1
20260504010018 46 199 1.7 4.3 0.00 7.08 7.08 87 1013.4
20260504005527 46 186 1.7 2.6 0.00 7.08 7.08 87 1013.4
20260504005020 46 103 0.9 1.7 0.00 7.08 7.08 87 1013.4
20260504004524 46 110 1.7 2.6 0.00 7.08 7.08 88 1013.4
20260504004022 46 177 0.9 1.7 0.00 7.08 7.08 89 1013.4
20260504003521 46 204 0.9 3.5 0.00 7.08 7.08 89 1013.3
20260504003019 46 162 2.6 3.5 0.00 7.08 7.08 89 1013.3
20260504002517 46 174 2.6 3.5 0.00 7.08 7.08 89 1013.3
20260504002015 46 159 2.6 3.5 0.00 7.08 7.08 89 1013.3
20260504001519 46 159 2.6 3.5 0.00 7.08 7.08 89 1013.3
20260504001030 46 159 2.6 3.5 0.00 7.08 7.08 89 1013.4
20260504000523 47 166 2.6 2.6 0.00 7.08 7.08 89 1013.4
20260504000032 47 156 1.7 3.5 0.00 7.08 7.08 89 1013.6
20260503235524 47 162 2.6 3.5 0.00 7.08 7.08 89 1013.7
20260503235016 47 166 2.6 3.5 0.00 7.08 7.08 88 1013.8
20260503234527 47 138 1.7 2.6 0.00 7.08 7.08 88 1013.8
20260503234019 47 155 0.9 1.7 0.00 7.08 7.08 87 1013.8
20260503233529 47 169 0.9 2.6 0.00 7.08 7.08 87 1013.7
20260503233021 47 0.0 0.0 0.00 7.08 7.08 87 1013.7
20260503232531 47 0.0 0.0 0.00 7.08 7.08 87 1014.0
20260503232024 47 158 0.0 1.7 0.00 7.08 7.08 87 1014.1
20260503231516 47 164 1.7 1.7 0.00 7.08 7.08 87 1014.2
20260503231027 47 170 0.9 1.7 0.00 7.08 7.08 86 1014.5
20260503230518 47 175 1.7 2.6 0.00 7.08 7.08 86 1014.5
20260503230029 47 270 5.2 5.2 0.00 7.08 7.08 86 1014.9
20260503225521 47 259 4.3 8.7 0.00 7.08 7.08 86 1015.0
20260503225032 48 238 6.1 9.6 0.00 7.08 7.08 84 1015.0
20260503224523 48 274 7.0 9.6 0.00 7.08 7.08 82 1015.0
20260503224015 49 271 9.6 13.9 0.00 7.08 7.08 79 1015.0
20260503223526 49 276 9.6 14.8 0.00 7.08 7.08 76 1015.2
20260503223018 50 252 9.6 13.9 0.00 7.08 7.08 73 1015.2
20260503222528 50 203 7.0 7.0 0.00 7.08 7.08 72 1015.2
20260503222019 50 273 12.2 14.8 0.00 7.08 7.08 70 1015.2
20260503221529 51 266 11.3 16.5 0.00 7.08 7.08 68 1015.1
20260503221021 51 262 10.4 17.4 0.00 7.08 7.08 66 1015.0
20260503220525 53 229 10.4 11.3 0.00 7.08 7.08 62 1015.0
20260503220023 53 265 8.7 11.3 0.00 7.08 7.08 60 1014.6
20260503215521 54 285 10.4 15.6 0.00 7.08 7.08 57 1014.5
20260503215019 55 273 11.3 19.1 0.00 7.08 7.08 52 1014.4
20260503214517 57 244 11.3 16.5 0.00 7.08 7.08 45 1014.3
20260503214016 57 247 7.8 11.3 0.00 7.08 7.08 45 1014.3
20260503213519 58 241 8.7 12.2 0.00 7.08 7.08 44 1014.3
20260503213029 58 254 8.7 11.3 0.00 7.08 7.08 44 1014.3
20260503212521 58 257 9.6 13.9 0.00 7.08 7.08 43 1014.3
20260503212032 59 258 9.6 13.9 0.00 7.08 7.08 42 1014.3
20260503211524 59 255 9.6 13.9 0.00 7.08 7.08 43 1014.4
20260503211017 59 260 7.8 14.8 0.00 7.08 7.08 43 1014.5
20260503210526 59 251 6.1 9.6 0.00 7.08 7.08 44 1014.5
20260503210019 59 240 8.7 13.0 0.00 7.08 7.08 42 1014.6
20260503205529 59 263 7.8 12.2 0.00 7.08 7.08 43 1014.7
20260503205021 59 257 9.6 12.2 0.00 7.08 7.08 42 1014.7
20260503204531 59 264 7.0 11.3 0.00 7.08 7.08 42 1014.7
20260503204023 59 266 9.6 13.9 0.00 7.08 7.08 41 1014.7
20260503203517 0 293 7.0 7.0 0.00 7.08 7.08 1015.0
20260503203026 60 277 8.7 13.9 0.00 7.08 7.08 41 1015.0
20260503202518 60 260 7.8 11.3 0.00 7.08 7.08 40 1015.0
20260503202028 61 267 9.6 14.8 0.00 7.08 7.08 40 1015.0
20260503201520 61 252 7.8 13.0 0.00 7.08 7.08 41 1015.1
20260503201030 61 250 8.7 13.9 0.00 7.08 7.08 40 1015.2
20260503200525 61 247 7.8 13.9 0.00 7.08 7.08 40 1015.2
20260503200015 61 255 7.8 13.0 0.00 7.08 7.08 40 1015.2
20260503195525 61 252 9.6 11.3 0.00 7.08 7.08 39 1015.2
20260503195017 62 263 9.6 13.0 0.00 7.08 7.08 39 1015.3
20260503194528 62 269 9.6 14.8 0.00 7.08 7.08 39 1015.4
20260503194021 63 271 9.6 16.5 0.00 7.08 7.08 38 1015.4
20260503193531 63 281 8.7 8.7 0.00 7.08 7.08 38 1015.5
20260503193023 62 250 8.7 13.9 0.00 7.08 7.08 38 1015.5
20260503192516 63 248 8.7 11.3 0.00 7.08 7.08 38 1015.6
20260503192026 62 254 8.7 12.2 0.00 7.08 7.08 38 1015.7
20260503191518 63 267 9.6 13.9 0.00 7.08 7.08 39 1015.7
20260503191022 62 281 8.7 11.3 0.00 7.08 7.08 39 1015.9
20260503190520 63 247 8.7 11.3 0.00 7.08 7.08 38 1015.9
20260503190018 62 251 9.6 19.1 0.00 7.08 7.08 38 1016.1
20260503185516 63 255 9.6 11.3 0.00 7.08 7.08 38 1016.2
20260503185033 62 265 8.7 13.9 0.00 7.08 7.08 38 1016.2